This is the latest recevied weather packets stored in our database for station/object K4OAM-13. If no packets are shown the sender has not sent any weather packets the latest 10 day(s).
| Time | Temp. | Humidity | Pressure | Rain* | Wind** | Luminosity | Snow |
|---|---|---|---|---|---|---|---|
| 1777875221 | 7.22° C | 66% | 1010.9 hPa | - | - | - | - |
| 1777874921 | 7.22° C | 66% | 1011.2 hPa | - | - | - | - |
| 1777872820 | 7.22° C | 66% | 1011.4 hPa | - | - | - | - |
| 1777870720 | 7.22° C | 66% | 1011.4 hPa | - | - | - | - |
| 1777870437 | 6.67° C | 66% | 1011.2 hPa | - | - | - | - |
| 1777868621 | 7.22° C | 65% | 1011.1 hPa | - | - | - | - |
| 1777867121 | 7.22° C | 69% | 1011.1 hPa | - | - | - | - |
| 1777866223 | 7.22° C | 70% | 1011.1 hPa | - | - | - | - |
| 1777865620 | 7.22° C | 72% | 1010.7 hPa | - | - | - | - |
| 1777861721 | 7.78° C | 75% | 1010.4 hPa | - | - | - | - |
| 1777859621 | 7.78° C | 73% | 1010.2 hPa | - | - | - | - |
| 1777856920 | 7.78° C | 75% | 1009.8 hPa | - | - | - | - |
| 1777856021 | 7.78° C | 74% | 1009.9 hPa | - | - | - | - |
| 1777855120 | 7.22° C | 76% | 1009.9 hPa | - | - | - | - |
| 1777853629 | 7.78° C | 74% | 1010.2 hPa | - | - | - | - |
| 1777852421 | 7.78° C | 72% | 1010.3 hPa | - | - | - | - |
| 1777849136 | 8.33° C | 67% | 1009.7 hPa | - | - | - | - |
| 1777847320 | 8.89° C | 63% | 1009.6 hPa | - | - | - | - |
| 1777847021 | 8.89° C | 62% | 1009.4 hPa | - | - | - | - |
| 1777846752 | 8.89° C | 62% | 1009.4 hPa | - | - | - | - |
| 1777843720 | 8.33° C | 66% | 1009 hPa | - | - | - | - |
| 1777837721 | 10.56° C | 75% | 1007 hPa | - | - | - | - |
| 1777835320 | 10.56° C | 84% | 1006.5 hPa | - | - | - | - |
| 1777833220 | 11.11° C | 81% | 1006.2 hPa | - | - | - | - |
| 1777830521 | 10.56° C | 83% | 1006.3 hPa | - | - | - | - |
* Rain since midnight (hover to see other rain measurements)
** Current wind speed in m/s (hover to see current wind gust speed)